Flag for Switzerland Weather past 2 weeks in Sion, Valais, Switzerland

Now
64 °F

Mild.


Feels Like: 64 °F
Forecast: 53 / 74 °F
Wind: 2 mph from South

Location: Sion

Current Time: Sep 3, 2015 at 11:04:06 AM

Latest Report: Sep 3, 2015 at 10:00 AM


Visibility: N/A

Pressure: 29.94 "Hg (28.18 "Hg at 514m altitude)

Humidity: 66%

Dew point: 52 °F

Location of SionLocation

Historic Weather in Sion — Graph

°F

Sion temperature yesterday

Maximum temperature yesterday: 74 °F (at 3:00 PM)
Minimum temperature yesterday: 60 °F (at 7:00 AM)
Average temperature yesterday: 67 °F

Past Weeks' High & Low Weather Summary

 TemperatureHumidityPressure
High90 °F (Aug 30, 3:00 PM)98% (Aug 25, 5:00 AM)30.26 "Hg (Aug 25, 5:00 AM)
Low52 °F (Aug 20, 4:00 AM)20% (Aug 31, 4:00 PM)29.71 "Hg (Aug 24, 3:00 PM)
Average68 °F63%30.01 "Hg
* Reported Aug 19 9:00 AM — Sep 3 9:00 AM, Sion, Weather by CustomWeather, © 2015

Note: Actual official high and low records may vary slightly from our data, if they occured in-between our weather recording intervals... More about our weather records

Advertising

Sion weather history for previous 24 hours

 ConditionsComfort  
Time TempWeatherWind HumidityBarometerVisibility
9:00 AM
Thu, Sep 3
61 °FCool.3 mph74%29.96 "HgN/A
8:00 AM58 °FScattered clouds.1 mph81%29.97 "Hg16 mi
7:00 AM56 °FCool.1 mph86%29.96 "HgN/A
6:00 AM57 °FCool.1 mph83%29.95 "HgN/A
5:00 AM58 °FPassing clouds.3 mph80%29.95 "Hg16 mi
4:00 AM59 °FCool.2 mph77%29.96 "HgN/A
3:00 AM62 °FCool.1 mph71%29.94 "HgN/A
2:00 AM61 °FPassing clouds.1 mph73%29.94 "Hg16 mi
1:00 AM64 °FMild.3 mph65%29.93 "HgN/A
12:00 AM65 °FMild.3 mph61%29.91 "HgN/A
11:00 PM
Wed, Sep 2
67 °FPassing clouds.8 mph59%29.90 "Hg12 mi
10:00 PM67 °FMild.6 mph57%29.90 "HgN/A
9:00 PM68 °FMild.12 mph55%29.88 "HgN/A
8:00 PM69 °FScattered clouds.16 mph53%29.86 "Hg12 mi
7:00 PM72 °FMild.20 mph47%29.84 "HgN/A
6:00 PM74 °FMild.21 mph46%29.83 "HgN/A
5:00 PM74 °FScattered clouds.21 mph48%29.83 "Hg12 mi
4:00 PM73 °FMild.20 mph49%29.83 "HgN/A
3:00 PM74 °FMild.14 mph47%29.84 "HgN/A
2:00 PM73 °FScattered clouds.13 mph49%29.86 "Hg12 mi
1:00 PM71 °FMild.6 mph53%29.88 "HgN/A
12:00 PM70 °FMild.5 mph53%29.92 "HgN/A
11:00 AM67 °FScattered clouds.2 mph60%29.95 "Hg12 mi
Weather by CustomWeather, © 2015

See weather overviewHow to use our weather pages